Minatare, NE

11:18 AM MST on February 07, 2016 (GMT -0700)
Heilig

Weather History for KBFF - February, 2012

Change the Weather History Date:

Sunday, February 12, 2012

  Actual Average Record
Temperature  
Mean Temperature 19 °F 30 °F  
Max Temperature 27 °F 44 °F 73 °F (1962)
Min Temperature 10 °F 16 °F -45 °F (1899)
Degree Days  
Heating Degree Days 46 35  
Month to date heating degree days 465 435  
Since 1 July heating degree days 4099 4377  
Cooling Degree Days 0 0  
Month to date cooling degree days 0 0  
Year to date cooling degree days 0 0  
Moisture  
Dew Point 13 °F    
Average Humidity 80    
Maximum Humidity 92    
Minimum Humidity 68    
Precipitation  
Precipitation T in 0.02 in 0.51 in (1915)
Month to date precipitation 0.22 0.22  
Year to date precipitation 0.38 0.63  
Snow  
Snow 0.10 in 0.20 in 5.20 in (1915)
Month to date snowfall 2.7 2.8  
Since 1 July snowfall 12.6 24.2  
Snow Depth 2.00 in    
Sea Level Pressure  
Sea Level Pressure 30.00 in    
Wind  
Wind Speed 10 mph (SE)    
Max Wind Speed 16 mph    
Max Gust Speed 21 mph    
Visibility 10 miles    
Events      
T = Trace of Precipitation, MM = Missing Value Source: NWS Daily Summary

Daily Weather History Graph

Daily Weather History Graph

Search for Another Location

Airport or City:

Trip Planner

Search our weather history database for the weather conditions in past years. The results will help you decide how hot, cold, wet, or windy it might be!

Date:

Astronomy

Feb. 12, 2012 Rise Set
Actual Time 6:54 AM MST 5:23 PM MST
Civil Twilight 6:25 AM MST 5:51 PM MST
Nautical Twilight 5:53 AM MST 6:24 PM MST
Astronomical Twilight 5:20 AM MST 6:57 PM MST
Moon 11:31 PM MST (2/12) 9:08 AM MST (2/12)
Length of Visible Light 11h 26m
Length of Day
10h 28m
Waning Gibbous, 71% of the Moon is Illuminated
Feb 12
Waning Gibbous
Feb 14
Last Quarter
Feb 21
New
Feb 29
First Quarter
Mar 8
Full

Hourly Weather History & Observations

Time (MST) Temp. Windchill Dew Point Humidity Pressure Visibility Wind Dir Wind Speed Gust Speed Precip Events Conditions
12:53 AM 12.9 °F -2.2 °F 9.0 °F 84% 30.33 in 10.0 mi ESE 13.8 mph - N/A   Overcast
1:53 AM 12.9 °F -1.6 °F 9.0 °F 84% 30.30 in 10.0 mi ESE 12.7 mph - N/A   Mostly Cloudy
2:13 AM 12.2 °F -3.1 °F 10.4 °F 92% 30.11 in 10.0 mi ESE 13.8 mph - N/A   Overcast
2:53 AM 12.0 °F -1.3 °F 8.1 °F 84% 30.26 in 10.0 mi ESE 10.4 mph - N/A   Clear
3:53 AM 10.9 °F -2.6 °F 7.0 °F 84% 30.25 in 10.0 mi SE 10.4 mph - N/A   Clear
4:53 AM 10.9 °F -0.8 °F 7.0 °F 84% 30.23 in 10.0 mi SE 8.1 mph - N/A   Clear
5:10 AM 10.4 °F -2.4 °F 6.8 °F 85% 30.04 in 10.0 mi ESE 9.2 mph - N/A   Mostly Cloudy
5:53 AM 12.9 °F -1.6 °F 9.0 °F 84% 30.20 in 10.0 mi ESE 12.7 mph - N/A   Overcast
6:53 AM 12.9 °F -0.2 °F 9.0 °F 84% 30.18 in 10.0 mi SE 10.4 mph - N/A   Overcast
7:53 AM 15.1 °F 0.5 °F 10.0 °F 80% 30.17 in 10.0 mi ESE 13.8 mph - N/A   Overcast
8:53 AM 16.0 °F 1.1 °F 10.9 °F 81% 30.15 in 10.0 mi ESE 15.0 mph - N/A   Mostly Cloudy
9:05 AM 15.8 °F 1.4 °F 10.4 °F 79% 29.95 in 10.0 mi ESE 13.8 mph - N/A   Scattered Clouds
9:53 AM 18.0 °F 4.2 °F 12.0 °F 78% 30.11 in 10.0 mi SE 13.8 mph - N/A   Partly Cloudy
10:53 AM 21.0 °F 8.1 °F 14.0 °F 74% 30.06 in 10.0 mi SE 13.8 mph - N/A   Mostly Cloudy
11:53 AM 23.0 °F 12.4 °F 16.0 °F 74% 30.02 in 10.0 mi SSE 10.4 mph - N/A   Partly Cloudy
12:53 PM 25.0 °F 14.2 °F 17.1 °F 72% 29.96 in 10.0 mi SSE 11.5 mph - N/A   Clear
1:53 PM 26.1 °F 16.8 °F 18.0 °F 71% 29.92 in 10.0 mi SE 9.2 mph - N/A   Clear
2:53 PM 27.0 °F 16.7 °F 19.9 °F 75% 29.90 in 10.0 mi SE 11.5 mph - N/A   Clear
3:48 PM 26.6 °F 16.8 °F 19.4 °F 74% 29.76 in 10.0 mi SE 10.4 mph - N/A   Mostly Cloudy
3:53 PM 26.1 °F 16.2 °F 19.0 °F 75% 29.89 in 10.0 mi SE 10.4 mph - N/A   Scattered Clouds
4:43 PM 24.8 °F 16.9 °F 19.4 °F 80% 29.75 in 10.0 mi SE 6.9 mph - N/A   Mostly Cloudy
4:53 PM 24.1 °F 15.2 °F 19.0 °F 81% 29.89 in 10.0 mi ESE 8.1 mph - N/A   Mostly Cloudy
5:22 PM 23.0 °F 13.9 °F 17.6 °F 80% 29.75 in 10.0 mi SE 8.1 mph - N/A   Scattered Clouds
5:53 PM 21.0 °F 12.4 °F 17.1 °F 85% 29.90 in 10.0 mi ESE 6.9 mph - N/A   Clear
6:53 PM 21.0 °F 13.4 °F 17.1 °F 85% 29.89 in 10.0 mi ESE 5.8 mph - N/A   Mostly Cloudy
7:53 PM 21.0 °F 13.4 °F 18.0 °F 88% 29.88 in 10.0 mi ESE 5.8 mph - N/A   Overcast
8:53 PM 17.1 °F 11.7 °F 14.0 °F 88% 29.87 in 9.0 mi ESE 3.5 mph - N/A   Scattered Clouds
9:53 PM 16.0 °F 8.8 °F 14.0 °F 92% 29.86 in 7.0 mi NNW 4.6 mph - N/A   Partly Cloudy
10:53 PM 16.0 °F 6.3 °F 12.0 °F 84% 29.83 in 8.0 mi NW 6.9 mph - N/A   Overcast
11:53 PM 16.0 °F 7.4 °F 10.9 °F 81% 29.81 in 8.0 mi NW 5.8 mph - N/A   Overcast